period_start,C,m1,H,J0,J1,J2,J3,J4,J5,JA,JB,JC,JD,JJ,JK,JN,#
2016-11-28 00:03:14,0.19,4.05,0.00,20.73,25.35,28.96,14.92,51.14,1029.63,2033.13,2191.13,2198.93,2492.46,600.01,608.26,21.60,0000 0000 0000 0000 000000
2016-11-28 00:08:15,0.20,4.06,0.00,20.73,25.36,28.98,15.01,51.19,1029.55,2033.06,2188.72,2197.11,2490.33,600.30,608.60,21.65,0000 0000 0000 0000 000000
2016-11-28 00:13:17,0.20,4.07,0.00,20.74,25.37,28.98,14.92,51.13,1029.40,2033.02,2186.32,2195.29,2488.27,600.20,608.37,21.70,0000 0000 0000 0000 000000
2016-11-28 00:18:18,0.20,4.08,0.00,20.76,25.40,29.00,15.03,51.19,1029.39,2033.01,2183.99,2193.51,2486.20,600.05,608.07,21.75,0000 0000 0000 0000 000000
2016-11-28 00:23:19,0.20,4.09,0.00,20.79,25.40,29.04,14.90,51.12,1029.35,2033.00,2181.68,2191.73,2484.14,600.17,608.05,21.80,0000 0000 0000 0000 000000
2016-11-28 00:28:20,0.20,4.10,0.00,20.81,25.42,29.02,14.99,51.26,1029.37,2033.00,2179.33,2189.92,2482.13,600.22,608.19,21.85,0000 0000 0000 0000 000000
2016-11-28 00:33:21,0.19,4.11,0.00,20.82,25.43,29.06,14.89,51.13,1029.48,2033.00,2177.04,2188.18,2480.15,599.86,607.97,21.90,0000 0000 0000 0000 000000
2016-11-28 00:38:22,0.20,4.12,0.00,20.81,25.45,29.08,14.90,51.13,1029.40,2033.00,2174.81,2186.45,2478.15,600.01,608.01,21.95,0000 0000 0000 0000 000000
2016-11-28 00:43:24,0.20,4.13,0.00,20.82,25.46,29.08,14.88,51.06,1029.40,2033.00,2172.57,2184.65,2476.13,599.89,607.82,22.00,0000 0000 0000 0000 000000
2016-11-28 00:48:25,0.20,4.14,0.00,20.83,25.47,29.09,14.90,51.23,1029.36,2032.99,2170.26,2182.89,2474.09,600.27,608.13,22.05,0000 0000 0000 0000 000000
2016-11-28 00:53:27,0.20,4.15,0.00,20.84,25.49,29.10,14.90,51.21,1029.33,2032.98,2167.95,2181.10,2472.03,599.83,607.75,22.10,0000 0000 0000 0000 000000
2016-11-28 00:58:28,0.19,4.16,0.00,20.86,25.50,29.11,14.92,51.19,1029.33,2032.95,2165.59,2179.28,2470.01,600.00,607.90,22.15,0000 0000 0000 0000 000000
2016-11-28 01:03:29,0.19,4.17,0.00,20.89,25.52,29.13,14.90,51.20,1029.33,2032.77,2163.25,2177.46,2467.91,599.94,607.89,22.20,0000 0000 0000 0000 000000
2016-11-28 01:08:31,0.16,4.18,0.00,20.89,25.53,29.14,14.94,51.17,1029.32,2032.41,2160.95,2175.68,2465.84,600.01,607.82,22.25,0000 0000 0000 0000 000000
2016-11-28 01:13:32,0.22,4.19,0.00,20.89,25.55,29.16,14.83,51.24,1029.32,2032.60,2158.77,2174.14,2463.96,599.82,607.63,22.30,0000 0000 0000 0000 000000
2016-11-28 01:18:33,0.15,4.20,0.00,20.90,25.56,29.18,14.99,51.34,1029.32,2032.32,2156.42,2172.35,2461.91,600.30,608.17,22.35,0000 0000 0000 0000 000000
2016-11-28 01:23:35,0.19,4.21,0.00,20.93,25.57,29.18,14.91,51.21,1029.31,2032.14,2154.15,2170.60,2459.89,600.16,607.92,22.40,0000 0000 0000 0000 000000
2016-11-28 01:28:36,0.20,4.22,0.00,20.94,25.59,29.18,14.90,51.10,1029.31,2032.10,2151.91,2168.85,2457.92,600.11,607.74,22.45,0000 0000 0000 0000 000000
2016-11-28 01:33:37,0.19,4.23,0.00,20.94,25.60,29.20,14.86,51.16,1029.31,2032.05,2149.60,2167.10,2455.93,599.66,607.29,22.50,0000 0000 0000 0000 000000
2016-11-28 01:38:39,0.19,4.23,0.00,20.95,25.62,29.22,14.93,51.15,1029.31,2032.02,2147.36,2165.35,2453.95,600.06,607.63,22.55,0000 0000 0000 0000 000000
2016-11-28 01:43:40,0.20,4.25,0.00,20.96,25.63,29.23,14.87,51.11,1029.31,2032.00,2145.12,2163.59,2451.91,599.93,607.65,22.60,0000 0000 0000 0000 000000
2016-11-28 01:48:41,0.20,4.26,0.00,20.98,25.65,29.24,14.87,51.17,1029.31,2032.00,2142.89,2161.85,2449.97,599.93,607.56,22.65,0000 0000 0000 0000 000000
2016-11-28 01:53:42,0.19,4.27,0.00,20.97,25.66,29.26,14.83,51.13,1029.31,2032.00,2140.56,2160.19,2447.99,599.76,607.40,22.70,0000 0000 0000 0000 000000
2016-11-28 01:58:44,0.20,4.28,0.00,20.98,25.67,29.29,14.88,51.06,1029.30,2032.00,2138.37,2158.46,2446.04,599.81,607.43,22.75,0000 0000 0000 0000 000000
2016-11-28 02:03:45,0.20,4.29,0.00,21.00,25.69,29.26,14.94,51.12,1029.30,2032.00,2136.16,2156.73,2444.11,600.11,607.55,22.80,0000 0000 0000 0000 000000
2016-11-28 02:08:46,0.19,4.30,0.00,21.03,25.70,29.28,14.96,51.27,1029.28,2031.99,2134.06,2155.08,2442.18,600.16,607.73,22.85,0000 0000 0000 0000 000000
2016-11-28 02:13:48,0.19,4.31,0.00,21.01,25.71,29.30,14.96,51.17,1029.29,2031.99,2131.92,2153.48,2440.28,600.14,607.67,22.90,0000 0000 0000 0000 000000
2016-11-28 02:18:49,0.20,4.31,0.00,21.03,25.72,29.30,14.90,51.10,1029.31,2031.99,2129.70,2151.77,2438.37,599.68,607.21,22.95,0000 0000 0000 0000 000000
2016-11-28 02:23:50,0.19,4.33,0.00,21.04,25.73,29.33,14.94,51.21,1029.30,2031.98,2127.54,2150.09,2436.46,600.29,607.75,23.00,0000 0000 0000 0000 000000
2016-11-28 02:28:51,0.19,4.34,0.00,21.06,25.75,29.34,15.01,51.23,1029.29,2031.91,2125.32,2148.39,2434.50,600.19,607.63,23.05,0000 0000 0000 0000 000000
2016-11-28 02:33:52,0.19,4.34,0.00,21.04,25.76,29.35,14.93,51.23,1029.29,2031.86,2123.15,2146.71,2432.62,600.08,607.55,23.10,0000 0000 0000 0000 000000
2016-11-28 02:38:54,0.15,4.35,0.00,21.05,25.77,29.36,14.83,51.17,1029.30,2031.59,2121.00,2145.06,2430.77,599.87,607.34,23.15,0000 0000 0000 0000 000000
2016-11-28 02:43:55,0.18,4.36,0.00,21.10,25.78,29.38,14.96,51.20,1029.31,2031.47,2118.92,2143.45,2428.89,599.98,607.45,23.20,0000 0000 0000 0000 000000
2016-11-28 02:48:56,0.18,4.37,0.00,21.09,25.80,29.38,14.93,51.13,1029.31,2031.25,2116.78,2141.71,2427.00,600.15,607.50,23.25,0000 0000 0000 0000 000000
2016-11-28 02:53:57,0.18,4.38,0.00,21.10,25.80,29.38,14.94,51.21,1029.31,2031.07,2114.63,2140.06,2425.09,600.01,607.39,23.30,0000 0000 0000 0000 000000
2016-11-28 02:58:59,0.18,4.39,0.00,21.12,25.82,29.39,14.86,51.16,1029.30,2031.04,2112.49,2138.43,2423.27,599.92,607.29,23.35,0000 0000 0000 0000 000000
2016-11-28 03:04:00,0.19,4.40,0.00,21.15,25.82,29.40,14.92,51.19,1029.30,2031.02,2110.48,2136.78,2421.37,600.17,607.40,23.40,0000 0000 0000 0000 000000
2016-11-28 03:09:01,0.19,4.41,0.00,21.14,25.85,29.42,14.78,51.27,1029.26,2031.00,2108.36,2135.14,2419.49,599.67,606.93,23.45,0000 0000 0000 0000 000000
2016-11-28 03:14:03,0.19,4.42,0.00,21.13,25.85,29.46,14.84,51.28,1029.12,2031.01,2106.29,2133.55,2417.65,600.04,607.25,23.50,0000 0000 0000 0000 000000
2016-11-28 03:19:04,0.20,4.43,0.00,21.18,25.87,29.45,14.78,51.15,1029.06,2031.00,2104.17,2131.85,2415.80,599.85,607.02,23.55,0000 0000 0000 0000 000000
2016-11-28 03:24:05,0.19,4.44,0.00,21.19,25.87,29.45,14.96,51.32,1029.01,2031.00,2101.99,2130.26,2413.93,600.12,607.07,23.60,0000 0000 0000 0000 000000
2016-11-28 03:29:07,0.20,4.45,0.00,21.20,25.89,29.48,14.98,51.27,1028.96,2031.00,2099.94,2128.60,2412.03,600.20,607.16,23.65,0000 0000 0000 0000 000000
2016-11-28 03:34:08,0.19,4.46,0.00,21.20,25.90,29.49,14.85,51.19,1029.04,2031.00,2097.80,2126.94,2410.15,599.88,606.89,23.70,0000 0000 0000 0000 000000
2016-11-28 03:39:09,0.19,4.47,0.00,21.20,25.92,29.51,14.95,51.27,1028.96,2030.99,2095.65,2125.27,2408.22,600.02,606.99,23.75,0000 0000 0000 0000 000000
2016-11-28 03:44:10,0.19,4.48,0.00,21.21,25.93,29.51,14.92,51.23,1029.00,2030.98,2093.53,2123.66,2406.38,599.89,606.81,23.80,0000 0000 0000 0000 000000
2016-11-28 03:49:11,0.19,4.49,0.00,21.23,25.95,29.50,14.89,51.17,1028.97,2030.97,2091.40,2121.97,2404.47,600.02,606.87,23.85,0000 0000 0000 0000 000000
2016-11-28 03:54:13,0.19,4.50,0.00,21.23,25.95,29.52,14.93,51.23,1028.99,2030.96,2089.27,2120.42,2402.59,599.91,606.78,23.90,0000 0000 0000 0000 000000
2016-11-28 03:59:14,0.20,4.51,0.00,21.26,25.97,29.54,14.85,51.16,1029.03,2030.91,2087.14,2118.69,2400.72,599.94,606.84,23.95,0000 0000 0000 0000 000000
2016-11-28 04:04:16,0.18,4.52,0.00,21.26,25.98,29.54,14.86,51.17,1029.03,2030.86,2085.03,2117.11,2398.84,599.95,606.73,24.00,0000 0000 0000 0000 000000
2016-11-28 04:09:17,0.14,4.53,0.00,21.28,26.00,29.57,14.86,51.32,1029.14,2030.37,2082.81,2115.43,2396.84,600.15,607.05,24.05,0000 0000 0000 0000 000000
2016-11-28 04:14:18,0.18,4.53,0.00,21.29,26.00,29.58,14.91,51.23,1029.25,2030.22,2080.64,2113.74,2394.95,600.29,607.21,24.10,0000 0000 0000 0000 000000
2016-11-28 04:19:19,0.17,4.54,0.00,21.28,26.02,29.59,14.93,51.25,1029.24,2030.10,2078.47,2112.11,2393.16,600.02,606.98,24.15,0000 0000 0000 0000 000000
2016-11-28 04:24:21,0.19,4.55,0.00,21.29,26.03,29.60,14.91,51.28,1029.14,2030.05,2076.44,2110.64,2391.23,600.05,606.92,24.20,0000 0000 0000 0000 000000
2016-11-28 04:29:22,0.20,4.56,0.00,21.32,26.05,29.60,14.84,51.25,1029.21,2030.01,2074.28,2109.00,2389.35,599.90,606.91,24.25,0000 0000 0000 0000 000000
2016-11-28 04:34:23,0.19,4.57,0.00,21.31,26.06,29.62,14.90,51.23,1029.26,2030.00,2072.19,2107.40,2387.51,599.95,606.95,24.30,0000 0000 0000 0000 000000
2016-11-28 04:39:25,0.21,4.58,0.00,21.32,26.07,29.63,14.83,51.30,1029.26,2030.00,2070.08,2105.73,2385.65,599.99,606.88,24.35,0000 0000 0000 0000 000000
2016-11-28 04:44:26,0.18,4.59,0.00,21.32,26.09,29.65,14.82,51.25,1029.27,2030.00,2068.01,2104.15,2383.84,599.86,606.71,24.40,0000 0000 0000 0000 000000
2016-11-28 04:49:27,0.20,4.60,0.00,21.37,26.10,29.65,14.85,51.38,1029.29,2030.00,2065.89,2102.49,2381.91,600.00,606.78,24.45,0000 0000 0000 0000 000000
2016-11-28 04:54:29,0.20,4.61,0.00,21.37,26.12,29.66,14.91,51.39,1029.28,2030.00,2063.75,2100.81,2379.99,599.90,606.64,24.50,0000 0000 0000 0000 000000
2016-11-28 04:59:30,0.18,4.62,0.00,21.38,26.12,29.69,14.94,51.41,1029.28,2030.00,2061.67,2099.22,2378.15,600.30,607.02,24.55,0000 0000 0000 0000 000000
2016-11-28 05:04:32,0.20,4.63,0.00,21.41,26.14,29.70,14.94,51.45,1029.26,2029.99,2059.58,2097.61,2376.28,600.09,606.82,24.60,0000 0000 0000 0000 000000
2016-11-28 05:09:33,0.20,4.64,0.00,21.41,26.15,29.70,14.86,51.33,1029.22,2029.98,2057.51,2095.95,2374.44,599.82,606.48,24.65,0000 0000 0000 0000 000000
2016-11-28 05:14:35,0.19,4.65,0.00,21.44,26.16,29.73,14.96,51.41,1029.22,2029.97,2055.40,2094.37,2372.59,600.16,606.75,24.70,0000 0000 0000 0000 000000
2016-11-28 05:19:36,0.20,4.66,0.00,21.44,26.17,29.73,14.99,51.39,1029.22,2029.98,2053.33,2092.76,2370.77,600.02,606.59,24.75,0000 0000 0000 0000 000000
2016-11-28 05:24:37,0.19,4.67,0.00,21.46,26.17,29.74,14.82,51.25,1029.28,2029.98,2051.24,2091.23,2368.95,599.92,606.54,24.80,0000 0000 0000 0000 000000
2016-11-28 05:29:39,0.19,4.68,0.00,21.44,26.18,29.76,14.88,51.26,1029.31,2029.96,2049.14,2089.61,2367.24,599.85,606.42,24.85,0000 0000 0000 0000 000000
2016-11-28 05:34:40,0.18,4.69,0.00,21.44,26.20,29.75,14.93,51.27,1029.31,2029.93,2047.15,2088.02,2365.50,600.02,606.61,24.90,0000 0000 0000 0000 000000
2016-11-28 05:39:42,0.18,4.70,0.00,21.47,26.20,29.76,14.90,51.25,1029.31,2029.79,2045.22,2086.40,2363.66,599.96,606.60,24.95,0000 0000 0000 0000 000000
2016-11-28 05:44:43,0.16,4.71,0.00,21.53,26.20,29.77,14.86,51.22,1029.31,2029.40,2043.21,2084.76,2361.79,599.97,606.38,25.00,0000 0000 0000 0000 000000
2016-11-28 05:49:44,0.16,4.72,0.00,21.53,26.21,29.77,14.88,51.17,1029.31,2029.34,2041.17,2083.25,2360.10,599.91,606.36,25.05,0000 0000 0000 0000 000000
2016-11-28 05:54:46,0.21,4.73,0.00,21.52,26.22,29.80,14.88,51.17,1029.31,2029.41,2039.17,2081.71,2358.37,600.19,606.69,25.10,0000 0000 0000 0000 000000
2016-11-28 05:59:47,0.16,4.74,0.00,21.50,26.22,29.81,14.88,51.18,1029.31,2029.31,2037.25,2080.26,2356.59,599.93,606.46,25.15,0000 0000 0000 0000 000000
2016-11-28 06:04:48,0.18,4.75,0.00,21.50,26.22,29.81,14.80,51.20,1029.31,2029.23,2035.36,2078.71,2354.83,599.92,606.40,25.20,0000 0000 0000 0000 000000
2016-11-28 06:09:50,0.16,4.76,0.00,21.51,26.22,29.86,14.85,51.24,1029.31,2029.05,2033.42,2077.22,2353.08,599.76,606.41,25.26,0000 0000 0000 0000 000000
2016-11-28 06:14:51,0.19,4.76,0.00,21.51,26.22,29.84,14.86,51.11,1029.31,2029.04,2031.59,2075.70,2351.36,599.89,606.49,25.31,0000 0000 0000 0000 000000
2016-11-28 06:19:52,0.18,4.77,0.00,21.53,26.22,29.85,14.88,51.20,1029.31,2029.02,2029.60,2074.23,2349.63,599.95,606.42,25.36,0000 0000 0000 0000 000000
2016-11-28 06:24:53,0.20,4.79,0.00,21.53,26.22,29.82,14.89,51.11,1029.31,2029.01,2027.53,2072.64,2347.89,599.86,606.48,25.41,0000 0000 0000 0000 000000
2016-11-28 06:29:55,0.17,4.80,0.00,21.54,26.22,29.82,14.86,51.15,1029.31,2029.00,2025.61,2071.17,2346.13,600.02,606.50,25.46,0000 0000 0000 0000 000000
2016-11-28 06:34:56,0.19,4.80,0.00,21.56,26.22,29.82,14.79,51.13,1029.31,2029.00,2023.79,2069.69,2344.44,599.92,606.32,25.51,0000 0000 0000 0000 000000
2016-11-28 06:39:58,0.18,4.81,0.00,21.54,26.22,29.86,14.82,51.09,1029.31,2029.01,2021.82,2068.22,2342.76,599.99,606.39,25.56,0000 0000 0000 0000 000000
2016-11-28 06:44:59,0.19,4.82,0.00,21.58,26.22,29.85,14.93,51.13,1029.31,2029.00,2019.89,2066.71,2341.05,600.24,606.58,25.61,0000 0000 0000 0000 000000
2016-11-28 06:50:00,0.17,4.83,0.00,21.60,26.23,29.86,14.83,51.17,1029.31,2029.00,2017.95,2065.26,2339.32,599.87,606.16,25.66,0000 0000 0000 0000 000000
2016-11-28 06:55:01,0.20,4.84,0.00,21.59,26.24,29.87,14.89,51.21,1029.31,2029.00,2016.03,2063.72,2337.59,600.24,606.58,25.71,0000 0000 0000 0000 000000
2016-11-28 07:00:03,0.18,4.85,0.00,21.60,26.24,29.86,14.92,51.30,1029.31,2029.00,2014.09,2062.26,2335.87,600.51,606.85,25.76,0000 0000 0000 0000 000000
2016-11-28 07:05:04,0.19,4.86,0.00,21.62,26.25,29.87,14.88,51.17,1029.31,2029.00,2012.15,2060.77,2334.20,599.98,606.28,25.81,0000 0000 0000 0000 000000
2016-11-28 07:10:05,0.19,4.87,0.00,21.60,26.25,29.88,14.86,51.17,1029.31,2029.00,2010.19,2059.34,2332.53,600.26,606.68,25.86,0000 0000 0000 0000 000000
2016-11-28 07:15:06,0.19,4.88,0.00,21.61,26.25,29.89,14.83,51.13,1029.31,2028.99,2008.21,2057.77,2330.76,599.88,606.19,25.91,0000 0000 0000 0000 000000
2016-11-28 07:20:07,0.18,4.89,0.00,21.61,26.25,29.89,14.93,51.17,1029.31,2028.99,2006.25,2056.34,2329.10,600.08,606.42,25.96,0000 0000 0000 0000 000000
2016-11-28 07:25:08,0.19,4.90,0.00,21.60,26.25,29.89,14.83,51.21,1029.31,2028.99,2004.35,2054.81,2327.44,599.86,606.23,26.01,0000 0000 0000 0000 000000
2016-11-28 07:30:10,0.19,4.91,0.00,21.60,26.25,29.93,14.91,51.14,1029.31,2028.99,2002.50,2053.38,2325.66,600.16,606.44,26.06,0000 0000 0000 0000 000000
2016-11-28 07:35:11,0.18,4.92,0.00,21.62,26.25,29.89,14.91,51.25,1029.31,2028.99,2000.73,2051.90,2323.99,599.88,606.15,26.11,0000 0000 0000 0000 000000
2016-11-28 07:40:12,0.17,4.93,0.00,21.62,26.25,29.90,14.82,51.16,1029.31,2028.98,1998.97,2050.53,2322.37,600.18,606.49,26.16,0000 0000 0000 0000 000000
2016-11-28 07:45:13,0.18,4.94,0.00,21.60,26.25,29.92,14.89,51.17,1029.31,2028.97,1997.03,2049.07,2320.66,600.17,606.51,26.21,0000 0000 0000 0000 000000
2016-11-28 07:50:14,0.19,4.95,0.00,21.65,26.25,29.90,14.91,51.14,1029.31,2028.98,1995.20,2047.61,2319.08,600.00,606.23,26.26,0000 0000 0000 0000 000000
2016-11-28 07:55:15,0.17,4.95,0.00,21.65,26.26,29.93,14.88,51.19,1029.31,2028.97,1993.21,2046.49,2317.49,599.92,606.27,26.31,0000 0000 0000 0000 000000
2016-11-28 08:00:17,0.18,4.96,0.00,21.62,26.27,29.94,14.78,51.14,1029.29,2028.97,1991.31,2045.02,2315.78,599.90,606.19,26.36,0000 0000 0000 0000 000000
2016-11-28 08:05:18,0.18,4.97,0.00,21.62,26.27,29.94,14.81,51.08,1029.27,2028.99,1989.55,2043.62,2314.15,599.93,606.14,26.41,0000 0000 0000 0000 000000
2016-11-28 08:10:20,0.17,4.98,0.00,21.63,26.27,29.92,14.88,50.99,1029.24,2028.98,1987.66,2042.21,2312.57,599.96,606.09,26.46,0000 0000 0000 0000 000000
2016-11-28 08:15:22,0.19,4.99,0.00,21.62,26.27,29.94,14.97,51.18,1029.27,2028.98,1985.86,2040.76,2310.89,600.19,606.53,26.51,0000 0000 0000 0000 000000
2016-11-28 08:20:23,0.16,5.00,0.00,21.62,26.27,29.94,14.81,51.08,1029.26,2028.98,1984.09,2039.44,2309.27,599.67,605.98,26.56,0000 0000 0000 0000 000000
2016-11-28 08:25:24,0.18,5.01,0.00,21.64,26.27,29.93,14.90,51.14,1029.28,2028.97,1982.35,2037.93,2307.67,600.07,606.22,26.61,0000 0000 0000 0000 000000
2016-11-28 08:30:26,0.19,5.02,0.00,21.61,26.27,29.96,14.85,51.12,1029.28,2028.96,1980.60,2036.58,2306.04,600.08,606.30,26.66,0000 0000 0000 0000 000000
2016-11-28 08:35:27,0.17,5.03,0.00,21.60,26.27,29.96,14.95,51.23,1029.23,2028.97,1978.83,2035.24,2304.53,600.58,606.88,26.71,0000 0000 0000 0000 000000
2016-11-28 08:40:28,0.19,5.04,0.00,21.61,26.27,29.95,14.83,51.08,1029.26,2028.97,1977.01,2033.79,2302.95,600.27,606.62,26.76,0000 0000 0000 0000 000000
2016-11-28 08:45:30,0.16,5.04,0.00,21.59,26.27,29.95,14.86,51.14,1029.22,2028.97,1975.19,2032.51,2301.49,600.08,606.43,26.81,0000 0000 0000 0000 000000
2016-11-28 08:50:31,0.17,5.06,0.00,21.58,26.27,29.97,14.86,51.10,1029.04,2028.95,1973.32,2031.05,2299.80,600.03,606.23,26.86,0000 0000 0000 0000 000000
2016-11-28 08:55:32,0.19,5.06,0.00,21.60,26.27,29.94,14.88,51.09,1028.95,2028.95,1971.54,2029.60,2298.18,600.04,606.22,26.91,0000 0000 0000 0000 000000
2016-11-28 09:00:34,0.17,5.07,0.00,21.58,26.27,29.94,14.88,51.20,1028.97,2028.95,1969.82,2028.31,2296.64,600.02,606.20,26.96,0000 0000 0000 0000 000000
2016-11-28 09:05:35,0.17,5.08,0.00,21.57,26.27,29.93,14.88,51.11,1028.96,2028.93,1968.01,2026.92,2295.11,599.98,606.15,27.01,0000 0000 0000 0000 000000
2016-11-28 09:10:36,0.18,5.09,0.00,21.53,26.27,29.94,14.90,51.17,1029.06,2028.92,1966.24,2025.57,2293.53,599.75,606.19,27.06,0000 0000 0000 0000 000000
2016-11-28 09:15:37,0.17,5.10,0.00,21.52,26.27,29.91,14.84,51.11,1029.21,2028.92,1964.51,2024.23,2291.92,599.79,606.28,27.11,0000 0000 0000 0000 000000
2016-11-28 09:20:38,0.19,5.11,0.00,21.54,26.27,29.93,14.89,51.15,1029.25,2028.91,1962.68,2022.81,2290.42,600.15,606.59,27.16,0000 0000 0000 0000 000000
2016-11-28 09:25:40,0.19,5.12,0.00,21.53,26.27,29.94,14.93,51.13,1029.29,2028.92,1960.79,2021.45,2288.82,600.05,606.48,27.21,0000 0000 0000 0000 000000
2016-11-28 09:30:41,0.17,5.13,0.00,21.51,26.27,29.95,14.80,51.13,1029.25,2028.94,1958.94,2020.02,2287.31,599.76,606.29,27.26,0000 0000 0000 0000 000000
2016-11-28 09:35:43,0.18,5.14,0.00,21.50,26.27,29.92,14.86,51.35,1029.22,2028.92,1957.22,2018.62,2285.63,599.88,606.33,27.31,0000 0000 0000 0000 000000
2016-11-28 09:40:44,0.17,5.15,0.00,21.53,26.27,29.89,14.86,51.28,1029.16,2028.91,1955.41,2017.28,2284.09,599.61,606.04,27.36,0000 0000 0000 0000 000000
2016-11-28 09:45:45,0.17,5.15,0.00,21.50,26.27,29.91,14.85,51.14,1029.22,2028.90,1953.69,2015.93,2282.51,599.88,606.37,27.41,0000 0000 0000 0000 000000
2016-11-28 09:50:46,0.19,5.16,0.00,21.49,26.27,29.93,14.85,51.23,1029.11,2028.91,1951.87,2014.54,2280.94,599.86,606.34,27.46,0000 0000 0000 0000 000000
2016-11-28 09:55:47,0.18,5.17,0.00,21.50,26.27,29.93,14.84,51.12,1029.07,2028.92,1949.95,2013.12,2279.39,599.53,605.96,27.51,0000 0000 0000 0000 000000
2016-11-28 10:00:49,0.18,5.18,0.00,21.49,26.27,29.89,14.93,51.20,1029.04,2028.88,1948.21,2011.75,2277.80,600.08,606.56,27.56,0000 0000 0000 0000 000000
2016-11-28 10:05:50,0.17,5.19,0.00,21.49,26.27,29.91,14.88,51.25,1028.99,2028.91,1946.52,2010.47,2276.37,600.21,606.61,27.61,0000 0000 0000 0000 000000
2016-11-28 10:10:52,0.17,5.20,0.00,21.46,26.27,29.90,14.85,51.23,1029.04,2028.91,1944.75,2009.10,2274.79,599.82,606.28,27.66,0000 0000 0000 0000 000000
2016-11-28 10:15:53,0.18,5.21,0.00,21.47,26.26,29.91,14.90,51.23,1028.96,2028.95,1943.02,2007.80,2273.33,600.03,606.43,27.71,0000 0000 0000 0000 000000
2016-11-28 10:20:54,0.17,5.22,0.00,21.46,26.25,29.88,14.89,51.24,1029.06,2028.96,1941.32,2006.54,2271.86,600.02,606.45,27.76,0000 0000 0000 0000 000000
2016-11-28 10:25:55,0.17,5.23,0.00,21.46,26.25,29.89,14.91,51.23,1029.16,2028.96,1939.66,2005.26,2270.38,599.78,606.21,27.81,0000 0000 0000 0000 000000
2016-11-28 10:30:57,0.17,5.24,0.00,21.45,26.25,29.92,14.95,51.33,1029.14,2028.96,1937.94,2003.96,2268.84,600.41,606.92,27.86,0000 0000 0000 0000 000000
2016-11-28 10:35:58,0.17,5.25,0.00,21.43,26.25,29.91,14.96,51.29,1029.15,2028.96,1936.34,2002.69,2267.47,600.12,606.75,27.91,0000 0000 0000 0000 000000
2016-11-28 10:40:59,0.17,5.25,0.00,21.43,26.25,29.92,14.91,51.35,1029.19,2028.95,1934.63,2001.39,2265.92,600.12,606.72,27.96,0000 0000 0000 0000 000000
2016-11-28 10:46:01,0.16,5.26,0.00,21.45,26.25,29.85,14.86,51.30,1029.26,2028.96,1933.01,2000.22,2264.58,599.94,606.54,28.01,0000 0000 0000 0000 000000
2016-11-28 10:51:02,0.16,5.27,0.00,21.43,26.25,29.88,14.90,51.22,1029.30,2028.98,1931.42,1998.94,2263.17,599.85,606.61,28.06,0000 0000 0000 0000 000000
2016-11-28 10:56:03,0.18,5.28,0.00,21.41,26.24,29.88,14.90,51.25,1029.31,2028.99,1929.69,1997.68,2261.70,600.04,606.81,28.11,0000 0000 0000 0000 000000
2016-11-28 11:01:04,0.14,5.29,0.00,21.42,26.23,29.85,14.93,51.29,1029.31,2028.98,1928.33,1996.48,2260.30,600.18,606.93,28.16,0000 0000 0000 0000 000000
2016-11-28 11:06:06,0.16,5.30,0.00,21.43,26.23,29.86,14.95,51.16,1029.31,2028.98,1926.74,1995.35,2258.86,600.36,607.00,28.21,0000 0000 0000 0000 000000
2016-11-28 11:11:07,0.17,5.31,0.00,21.41,26.23,29.89,14.85,51.17,1029.27,2028.97,1925.04,1994.01,2257.46,599.37,606.05,28.26,0000 0000 0000 0000 000000
2016-11-28 11:16:08,0.18,5.31,0.00,21.41,26.23,29.88,14.92,51.23,1029.16,2028.96,1923.34,1992.67,2255.93,600.20,606.78,28.31,0000 0000 0000 0000 000000
2016-11-28 11:21:09,0.18,5.32,0.00,21.41,26.22,29.86,14.95,51.34,1029.30,2028.97,1921.63,1991.43,2254.48,599.86,606.56,28.36,0000 0000 0000 0000 000000
2016-11-28 11:26:11,0.14,5.33,0.00,21.43,26.22,29.85,14.88,51.28,1029.31,2028.98,1920.15,1990.22,2253.11,599.75,606.42,28.41,0000 0000 0000 0000 000000
2016-11-28 11:31:12,0.18,5.34,0.00,21.40,26.23,29.86,14.92,51.24,1029.31,2028.98,1918.62,1988.93,2251.70,600.05,606.74,28.46,0000 0000 0000 0000 000000
2016-11-28 11:36:14,0.17,5.35,0.00,21.39,26.23,29.88,14.88,51.25,1029.31,2028.98,1916.94,1987.67,2250.23,599.90,606.70,28.51,0000 0000 0000 0000 000000
2016-11-28 11:41:15,0.16,5.36,0.00,21.40,26.24,29.88,14.92,51.29,1029.31,2028.96,1915.37,1986.46,2248.79,600.33,606.98,28.56,0000 0000 0000 0000 000000
2016-11-28 11:46:16,0.16,5.36,0.00,21.40,26.25,29.85,14.87,51.28,1029.31,2028.97,1913.72,1985.24,2247.46,599.66,606.49,28.61,0000 0000 0000 0000 000000
2016-11-28 11:51:18,0.15,5.37,0.00,21.38,26.25,29.87,14.96,51.47,1029.31,2028.98,1912.12,1983.99,2245.97,599.91,606.71,28.66,0000 0000 0000 0000 000000
2016-11-28 11:56:19,0.18,5.38,0.00,21.38,26.25,29.85,14.93,51.49,1029.31,2028.97,1910.54,1982.84,2244.58,600.00,606.78,28.72,0000 0000 0000 0000 000000
2016-11-28 12:01:21,0.17,5.39,0.00,21.39,26.25,29.88,15.01,51.44,1029.31,2028.98,1908.82,1981.63,2243.08,600.58,607.30,28.77,0000 0000 0000 0000 000000
2016-11-28 12:06:22,0.17,5.40,0.00,21.41,26.25,29.86,14.91,51.41,1029.31,2028.96,1907.17,1980.34,2241.60,600.27,606.99,28.82,0000 0000 0000 0000 000000
2016-11-28 12:11:24,0.16,5.41,0.00,21.40,26.25,29.86,14.88,51.42,1029.31,2028.94,1905.47,1978.95,2240.03,600.14,606.96,28.87,0000 0000 0000 0000 000000
2016-11-28 12:16:25,0.19,5.42,0.00,21.41,26.25,29.86,14.91,51.45,1029.31,2028.92,1903.84,1977.66,2238.67,600.04,606.75,28.92,0000 0000 0000 0000 000000
2016-11-28 12:21:26,0.16,5.43,0.00,21.40,26.25,29.88,14.87,51.53,1029.31,2028.91,1902.13,1976.40,2237.23,600.26,606.96,28.97,0000 0000 0000 0000 000000
2016-11-28 12:26:27,0.18,5.44,0.00,21.39,26.26,29.87,14.89,51.53,1029.31,2028.89,1900.41,1975.01,2235.66,600.05,606.92,29.02,0000 0000 0000 0000 000000
2016-11-28 12:31:29,0.17,5.44,0.00,21.40,26.26,29.87,14.92,51.46,1029.31,2028.80,1898.71,1973.71,2234.22,599.95,606.65,29.07,0000 0000 0000 0000 000000
2016-11-28 12:36:30,0.18,5.45,0.00,21.41,26.26,29.87,14.92,51.48,1029.25,2028.85,1897.09,1972.50,2232.75,600.32,606.97,29.12,0000 0000 0000 0000 000000
2016-11-28 12:41:31,0.14,5.46,0.00,21.39,26.26,29.89,14.86,51.33,1029.14,2028.71,1895.44,1971.23,2231.34,599.95,606.66,29.17,0000 0000 0000 0000 000000
2016-11-28 12:46:32,0.19,5.47,0.00,21.40,26.25,29.90,14.87,51.42,1028.94,2028.76,1893.75,1969.97,2229.90,600.10,606.58,29.22,0000 0000 0000 0000 000000
2016-11-28 12:51:34,0.16,5.48,0.00,21.41,26.25,29.88,14.92,51.52,1028.85,2028.79,1892.17,1968.75,2228.56,599.92,606.40,29.27,0000 0000 0000 0000 000000
2016-11-28 12:56:35,0.19,5.49,0.00,21.39,26.25,29.86,14.90,51.46,1028.84,2028.83,1890.58,1967.58,2227.16,599.92,606.32,29.32,0000 0000 0000 0000 000000